This demonstration page uses our WeatherBlox Daily Observations layout. Learn more.

38.89511, -77.03637

Hourly Observations for September 27, 2019

Temp ( °F °C ) Dew Point ( °F °C ) Humidity (%) Winds ( mph kmh ) Pressure ( in mb ) Visibility ( mi km ) Precip ( " mm )
12:52 am 00:52 Mostly Clear 69 20.6 60 15.6 73 73 NNW 7 11 29.94 1014 10 16.09344 0 0
1:52 am 01:52 Mostly Clear 70 21.1 61 16.1 73 73 ENE 5 7 29.97 1015 10 16.09344 0 0
2:52 am 02:52 Clear 68 20 62 16.7 81 81 NNE 7 11 30 1016 9 14.484096 0 0
3:52 am 03:52 Partly Cloudy 67 19.4 62 16.7 84 84 NNE 5 7 30 1016 10 16.09344 0 0
4:52 am 04:52 Partly Cloudy 66 18.9 61 16.1 84 84 N 8 13 30.03 1017 10 16.09344 0 0
5:52 am 05:52 Mostly Cloudy 66 18.9 61 16.1 84 84 ENE 7 11 30.03 1017 10 16.09344 0 0
6:52 am 06:52 Mostly Cloudy 64 17.8 60 15.6 87 87 NE 6 9 30.06 1018 10 16.09344 0 0
7:52 am 07:52 Mostly Cloudy 66 18.9 59 15 78 78 NNE 8 13 30.09 1019 10 16.09344 0 0
8:52 am 08:52 Mostly Cloudy 69 20.6 60 15.6 73 73 ENE 7 11 30.12 1020 10 16.09344 0 0
9:52 am 09:52 Mostly Cloudy 73 22.8 56 13.3 55 55 E 7 11 30.12 1020 10 16.09344 0 0
10:52 am 10:52 Mostly Cloudy 76 24.4 55 12.8 48 48 ESE 8 13 30.12 1020 10 16.09344 0 0
11:52 am 11:52 Mostly Cloudy 78 25.6 53 11.7 42 42 E 6 9 30.12 1020 10 16.09344 0 0
12:52 pm 12:52 Mostly Cloudy 80 26.7 52 11.1 38 38 SSE 6 9 30.12 1020 10 16.09344 0 0
1:52 pm 13:52 Mostly Cloudy 81 27.2 55 12.8 41 41 S 8 13 30.09 1019 10 16.09344 0 0
3:52 pm 15:52 Mostly Cloudy 82 27.8 57 13.9 42 42 S 7 11 30.03 1017 10 16.09344 0 0
4:52 pm 16:52 Mostly Cloudy 83 28.3 55 12.8 38 38 S 10 17 30.03 1017 10 16.09344 0 0
5:52 pm 17:52 Mostly Cloudy 81 27.2 57 13.9 44 44 S 7 11 30.06 1018 10 16.09344 0 0
6:52 pm 18:52 Mostly Cloudy 78 25.6 59 15 52 52 SE 8 13 30.06 1018 10 16.09344 0 0
7:52 pm 19:52 Mostly Cloudy 76 24.4 58 14.4 54 54 SE 10 17 30.09 1019 10 16.09344 0 0
8:52 pm 20:52 Partly Cloudy 74 23.3 58 14.4 57 57 SSE 8 13 30.09 1019 10 16.09344 0 0
9:52 pm 21:52 Mostly Cloudy 73 22.8 60 15.6 64 64 S 9 15 30.09 1019 10 16.09344 0 0
10:52 pm 22:52 Mostly Cloudy 72 22.2 60 15.6 66 66 S 9 15 30.09 1019 10 16.09344 0 0
11:52 pm 23:52 Partly Cloudy 71 21.7 61 16.1 71 71 S 8 13 30.09 1019 10 16.09344 0 0

Powered by AerisWeather